Location: ??????
(31.2056°N, 45.3906°E)
Time: 12:50:33
(UTC+00:00)

Cosmos 2263 - Pass Details

Date: 09 April 2020
Orbit: 833 x 864 km, 70.9° (Epoch: 04 June)

Event Time Altitude Azimuth Distance (km) Brightness Sun altitude
Rises 15:51:39 0° 346° (NNW) 3,381 7.7 -6.8°
Reaches altitude 10° 15:54:10 10° 351° (N) 2,444 6.9 -7.3°
Maximum altitude 15:59:36 52° 67° (ENE) 1,033 4.4 -8.4°
Drops below altitude 10° 16:05:02 10° 143° (SE) 2,439 6.1 -9.6°
Enters shadow 16:06:39 - 147° (SSE) 3,043 6.6 -9.9°
